• în România
  • Lista ţărilor
  • Pe 7 zile
  • Temperatura apei
  • Hartă satelitară
  • Meteo pe hartă
  • Widget-uri
  • user-avatar
    Intrare

    Meteo pe oră la Batina

    Astăzi, 24 Iulie, Luni

    Timp Temperatura Precipitaţii Vânt Presiune Umiditate
    00:00 +31°C° 0,1 mm 3 m/s 676 mmHg 29%
    01:00 +31°C° 0 mm 2 m/s 675 mmHg 30%
    02:00 +30°C° 0 mm 2 m/s 675 mmHg 31%
    03:00 +30°C° 0 mm 2 m/s 675 mmHg 32%
    04:00 +30°C° 0 mm 2 m/s 675 mmHg 31%
    05:00 +30°C° 0 mm 3 m/s 675 mmHg 30%
    06:00 +31°C° 0 mm 3 m/s 675 mmHg 29%
    07:00 +34°C° 0 mm 4 m/s 675 mmHg 25%
    08:00 +35°C° 0 mm 6 m/s 675 mmHg 21%
    09:00 +38°C° 0 mm 7 m/s 676 mmHg 17%
    10:00 +39°C° 0 mm 8 m/s 675 mmHg 15%
    11:00 +40°C° 0 mm 8 m/s 675 mmHg 14%
    12:00 +41°C° 0 mm 8 m/s 675 mmHg 13%
    13:00 +41°C° 0 mm 8 m/s 675 mmHg 13%
    14:00 +41°C° 0 mm 8 m/s 674 mmHg 13%
    15:00 +41°C° 0 mm 7 m/s 674 mmHg 13%
    16:00 +39°C° 0,1 mm 7 m/s 673 mmHg 21%
    17:00 +36°C° 0,1 mm 6 m/s 673 mmHg 28%
    18:00 +34°C° 0,1 mm 6 m/s 673 mmHg 35%
    19:00 +33°C° 0,1 mm 5 m/s 673 mmHg 41%
    20:00 +30°C° 0,1 mm 4 m/s 673 mmHg 47%
    21:00 +28°C° 0,1 mm 4 m/s 673 mmHg 53%
    22:00 +28°C° 0 mm 3 m/s 673 mmHg 56%
    23:00 +27°C° 0 mm 3 m/s 672 mmHg 59%

    Mâine, 25 Iulie, Marţi

    Timp Temperatura Precipitaţii Vânt Presiune Umiditate
    00:00 +26°C° 0 mm 3 m/s 672 mmHg 62%
    01:00 +25°C° 0 mm 3 m/s 672 mmHg 64%
    02:00 +24°C° 0 mm 3 m/s 671 mmHg 66%
    03:00 +24°C° 0 mm 3 m/s 671 mmHg 68%
    04:00 +22°C° 0 mm 3 m/s 671 mmHg 67%
    05:00 +22°C° 0 mm 3 m/s 671 mmHg 67%
    06:00 +23°C° 0 mm 2 m/s 671 mmHg 66%
    07:00 +24°C° 0 mm 2 m/s 672 mmHg 57%
    08:00 +26°C° 0 mm 2 m/s 672 mmHg 47%
    09:00 +27°C° 0 mm 2 m/s 672 mmHg 37%
    10:00 +29°C° 0 mm 2 m/s 672 mmHg 33%
    11:00 +30°C° 0 mm 2 m/s 672 mmHg 30%
    12:00 +31°C° 0 mm 3 m/s 672 mmHg 26%
    13:00 +33°C° 0 mm 3 m/s 672 mmHg 24%
    14:00 +34°C° 0 mm 4 m/s 672 mmHg 23%
    15:00 +34°C° 0 mm 4 m/s 672 mmHg 21%
    16:00 +34°C° 0 mm 5 m/s 672 mmHg 22%
    17:00 +33°C° 0 mm 5 m/s 671 mmHg 24%
    18:00 +32°C° 0 mm 6 m/s 671 mmHg 26%
    19:00 +30°C° 0 mm 5 m/s 671 mmHg 33%
    20:00 +28°C° 0 mm 4 m/s 671 mmHg 40%
    21:00 +27°C° 0 mm 3 m/s 671 mmHg 47%
    22:00 +26°C° 0 mm 3 m/s 671 mmHg 50%
    23:00 +26°C° 0 mm 2 m/s 671 mmHg 53%

    Poimâine, 26 Iulie, Miercuri

    Timp Temperatura Precipitaţii Vânt Presiune Umiditate
    00:00 +25°C° 0 mm 2 m/s 671 mmHg 57%
    01:00 +24°C° 0 mm 2 m/s 670 mmHg 59%
    02:00 +24°C° 0 mm 2 m/s 670 mmHg 61%
    03:00 +23°C° 0 mm 2 m/s 670 mmHg 63%
    04:00 +23°C° 0 mm 2 m/s 670 mmHg 64%
    05:00 +23°C° 0 mm 2 m/s 670 mmHg 65%
    06:00 +23°C° 0 mm 2 m/s 670 mmHg 66%
    07:00 +24°C° 0 mm 1 m/s 671 mmHg 60%
    08:00 +25°C° 0 mm 1 m/s 671 mmHg 53%
    09:00 +26°C° 0 mm 1 m/s 672 mmHg 46%
    10:00 +28°C° 0 mm 2 m/s 672 mmHg 40%
    11:00 +29°C° 0 mm 4 m/s 672 mmHg 34%
    12:00 +30°C° 0 mm 5 m/s 672 mmHg 27%
    13:00 +32°C° 0 mm 5 m/s 672 mmHg 26%
    14:00 +33°C° 0 mm 6 m/s 672 mmHg 24%
    15:00 +33°C° 0 mm 7 m/s 672 mmHg 22%
    16:00 +32°C° 0 mm 7 m/s 671 mmHg 24%
    17:00 +30°C° 0 mm 7 m/s 671 mmHg 25%
    18:00 +30°C° 0 mm 7 m/s 671 mmHg 27%
    19:00 +28°C° 0 mm 5 m/s 671 mmHg 30%
    20:00 +27°C° 0 mm 4 m/s 671 mmHg 34%
    21:00 +26°C° 0 mm 3 m/s 671 mmHg 37%
    22:00 +25°C° 0 mm 3 m/s 671 mmHg 39%
    23:00 +25°C° 0 mm 3 m/s 671 mmHg 41%

    27 Iulie, Joi

    Timp Temperatura Precipitaţii Vânt Presiune Umiditate
    00:00 +24°C° 0 mm 2 m/s 671 mmHg 43%
    01:00 +24°C° 0 mm 2 m/s 671 mmHg 46%
    02:00 +23°C° 0 mm 2 m/s 671 mmHg 48%
    03:00 +22°C° 0 mm 1 m/s 670 mmHg 50%
    04:00 +22°C° 0 mm 1 m/s 671 mmHg 50%
    05:00 +23°C° 0 mm 1 m/s 671 mmHg 50%
    06:00 +23°C° 0 mm 1 m/s 672 mmHg 50%
    07:00 +24°C° 0 mm 1 m/s 672 mmHg 45%
    08:00 +25°C° 0 mm 1 m/s 673 mmHg 40%
    09:00 +26°C° 0 mm 2 m/s 673 mmHg 34%
    10:00 +27°C° 0 mm 2 m/s 673 mmHg 30%
    11:00 +29°C° 0 mm 2 m/s 673 mmHg 26%
    12:00 +30°C° 0 mm 3 m/s 674 mmHg 22%
    13:00 +31°C° 0 mm 3 m/s 674 mmHg 20%
    14:00 +31°C° 0 mm 3 m/s 674 mmHg 19%
    15:00 +33°C° 0 mm 3 m/s 673 mmHg 17%
    16:00 +33°C° 0 mm 4 m/s 673 mmHg 18%
    17:00 +32°C° 0 mm 4 m/s 674 mmHg 18%
    18:00 +32°C° 0 mm 4 m/s 674 mmHg 19%
    19:00 +30°C° 0 mm 3 m/s 674 mmHg 22%
    20:00 +29°C° 0 mm 3 m/s 674 mmHg 25%
    21:00 +28°C° 0 mm 3 m/s 674 mmHg 28%
    22:00 +27°C° 0 mm 2 m/s 674 mmHg 30%
    23:00 +26°C° 0 mm 2 m/s 674 mmHg 32%

    28 Iulie, Vineri

    Timp Temperatura Precipitaţii Vânt Presiune Umiditate
    00:00 +26°C° 0 mm 1 m/s 673 mmHg 34%
    01:00 +25°C° 0 mm 1 m/s 673 mmHg 36%
    02:00 +25°C° 0 mm 1 m/s 673 mmHg 37%
    03:00 +24°C° 0 mm 1 m/s 673 mmHg 39%
    04:00 +25°C° 0 mm 1 m/s 673 mmHg 37%
    05:00 +25°C° 0 mm 1 m/s 673 mmHg 35%
    06:00 +26°C° 0 mm 1 m/s 674 mmHg 34%
    07:00 +27°C° 0 mm 1 m/s 674 mmHg 32%
    08:00 +28°C° 0 mm 2 m/s 675 mmHg 29%
    09:00 +29°C° 0 mm 2 m/s 676 mmHg 27%
    10:00 +30°C° 0 mm 2 m/s 676 mmHg 25%
    11:00 +31°C° 0 mm 3 m/s 676 mmHg 23%
    12:00 +33°C° 0 mm 3 m/s 676 mmHg 22%
    13:00 +34°C° 0 mm 4 m/s 676 mmHg 21%
    14:00 +35°C° 0 mm 4 m/s 676 mmHg 20%
    15:00 +35°C° 0 mm 4 m/s 675 mmHg 19%
    16:00 +35°C° 0 mm 4 m/s 675 mmHg 20%
    17:00 +34°C° 0 mm 4 m/s 675 mmHg 20%
    18:00 +34°C° 0 mm 5 m/s 675 mmHg 21%
    19:00 +33°C° 0 mm 4 m/s 675 mmHg 24%
    20:00 +31°C° 0 mm 3 m/s 675 mmHg 26%
    21:00 +30°C° 0 mm 3 m/s 676 mmHg 29%
    22:00 +29°C° 0 mm 2 m/s 675 mmHg 31%
    23:00 +28°C° 0 mm 2 m/s 675 mmHg 33%

    29 Iulie, Sâmbătă

    Timp Temperatura Precipitaţii Vânt Presiune Umiditate
    00:00 +28°C° 0 mm 1 m/s 675 mmHg 35%
    01:00 +27°C° 0 mm 1 m/s 675 mmHg 37%
    02:00 +26°C° 0 mm 1 m/s 675 mmHg 39%
    03:00 +26°C° 0 mm 1 m/s 674 mmHg 40%
    04:00 +26°C° 0 mm 1 m/s 675 mmHg 39%
    05:00 +26°C° 0 mm 1 m/s 675 mmHg 38%
    06:00 +27°C° 0 mm 2 m/s 676 mmHg 36%
    07:00 +28°C° 0 mm 2 m/s 676 mmHg 33%
    08:00 +30°C° 0 mm 3 m/s 677 mmHg 30%
    09:00 +31°C° 0 mm 3 m/s 677 mmHg 27%
    10:00 +33°C° 0 mm 3 m/s 677 mmHg 25%
    11:00 +34°C° 0 mm 4 m/s 677 mmHg 23%
    12:00 +35°C° 0 mm 4 m/s 677 mmHg 21%
    13:00 +35°C° 0 mm 4 m/s 677 mmHg 20%
    14:00 +36°C° 0 mm 4 m/s 676 mmHg 19%
    15:00 +36°C° 0 mm 4 m/s 676 mmHg 18%
    16:00 +36°C° 0 mm 4 m/s 676 mmHg 18%
    17:00 +36°C° 0 mm 4 m/s 676 mmHg 19%
    18:00 +35°C° 0 mm 4 m/s 676 mmHg 19%
    19:00 +34°C° 0 mm 3 m/s 676 mmHg 21%
    20:00 +32°C° 0 mm 2 m/s 676 mmHg 23%
    21:00 +31°C° 0 mm 2 m/s 676 mmHg 25%
    22:00 +30°C° 0 mm 2 m/s 676 mmHg 26%
    23:00 +29°C° 0 mm 1 m/s 675 mmHg 28%
    Arată mai mult